This is the latest recevied weather packets stored in our database for station/object SP3ZBZ-13. If no packets are shown the sender has not sent any weather packets the latest 1 day(s).
| Time | Temp. | Humidity | Pressure | Rain* | Wind** | Luminosity | Snow |
|---|---|---|---|---|---|---|---|
| 1778031288 | 9.44° C | 93% | 1002.9 hPa | - | 1.79 m/s, 18° | - | - |
| 1778030386 | 9.44° C | 93% | 1003 hPa | - | 2.24 m/s, 18° | - | - |
| 1778029486 | 9.44° C | 92% | 1003 hPa | - | 2.68 m/s, 10° | - | - |
| 1778028585 | 9.44° C | 91% | 1003 hPa | - | 2.68 m/s, 18° | - | - |
| 1778027683 | 9.44° C | 92% | 1003.1 hPa | - | 3.13 m/s, 72° | - | - |
| 1778026782 | 10° C | 92% | 1003.3 hPa | - | 2.24 m/s, 36° | - | - |
| 1778025881 | 10° C | 91% | 1003.3 hPa | - | 3.13 m/s, 3° | - | - |
| 1778024980 | 10° C | 91% | 1003.4 hPa | - | 2.68 m/s, 60° | - | - |
| 1778024079 | 10° C | 92% | 1003.7 hPa | - | 2.24 m/s, 36° | - | - |
| 1778023178 | 10° C | 92% | 1003.8 hPa | - | 2.24 m/s, 42° | - | - |
| 1778022278 | 10° C | 92% | 1003.8 hPa | - | 2.24 m/s, 28° | - | - |
| 1778021377 | 10° C | 93% | 1003.8 hPa | - | 2.24 m/s, 348° | - | - |
| 1778020476 | 9.44° C | 93% | 1003.9 hPa | - | 1.79 m/s, 24° | - | - |
| 1778019575 | 9.44° C | 93% | 1004 hPa | - | 1.79 m/s, 54° | - | - |
| 1778018674 | 9.44° C | 92% | 1004 hPa | - | 1.79 m/s, 0° | - | - |
| 1778017773 | 10° C | 93% | 1004.1 hPa | - | 1.79 m/s, 22° | - | - |
| 1778016872 | 10° C | 92% | 1004 hPa | - | 1.79 m/s, 36° | - | - |
| 1778015971 | 10° C | 92% | 1004.1 hPa | - | 1.79 m/s, 0° | - | - |
| 1778015070 | 10° C | 91% | 1004.2 hPa | - | 1.79 m/s, 24° | - | - |
| 1778014169 | 10.56° C | 93% | 1004.1 hPa | - | 1.34 m/s, 0° | - | - |
| 1778013269 | 10.56° C | 93% | 1004.2 hPa | - | 1.79 m/s, 48° | - | - |
| 1778012367 | 11.11° C | 92% | 1004.2 hPa | - | 1.79 m/s, 36° | - | - |
| 1778011467 | 11.11° C | 92% | 1004.1 hPa | - | 1.79 m/s, 357° | - | - |
| 1778010565 | 11.11° C | 92% | 1004.1 hPa | - | 1.34 m/s, 36° | - | - |
| 1778009665 | 11.67° C | 91% | 1004.2 hPa | - | 1.34 m/s, 24° | - | - |
* Rain since midnight (hover to see other rain measurements)
** Current wind speed in m/s (hover to see current wind gust speed)